EW5738 Weather Reports


Display with metric or nautical units.
time (UTC)temp
F
wind
direction
speed
MPH
gust
MPH
rain 1hr
in
rain 24hr
in
rain mn
in
humidity
%
barometer
mb
20260505193013 66 1 0.0 2.0 0.00 0.02 0.02 93 1017.4
20260505191512 66 178 0.0 3.0 0.00 0.02 0.02 93 1017.4
20260505190012 66 234 1.0 3.0 0.00 0.02 0.02 93 1017.4
20260505184510 66 145 0.0 2.0 0.00 0.02 0.02 93 1017.4
20260505183011 66 295 1.0 3.0 0.00 0.02 0.02 93 1017.3
20260505181508 66 306 1.0 2.0 0.00 0.02 0.02 93 1017.2
20260505180015 66 295 0.0 2.0 0.00 0.02 0.02 93 1017.1
20260505174506 66 331 1.0 2.0 0.00 0.02 0.02 93 1017.1
20260505173004 67 1 0.0 2.0 0.00 0.02 0.02 93 1017.0
20260505171502 67 293 2.0 5.0 0.00 0.02 0.02 93 1017.2
20260505170100 67 284 2.0 5.0 0.00 0.02 0.02 93 1017.5
20260505164700 68 295 1.0 6.0 0.01 0.02 0.02 93 1017.4
20260505163057 68 314 1.0 3.0 0.02 0.02 0.02 93 1017.6
20260505161557 68 286 2.0 5.0 0.02 0.02 0.02 94 1017.6
20260505153051 68 190 4.0 10.0 0.00 0.01 0.00 93 1017.9
20260505151549 68 217 1.0 4.0 0.00 0.01 0.00 93 1018.1
20260505124538 67 300 1.0 4.0 0.00 0.01 0.01 93 1018.4
20260505123038 68 306 1.0 2.0 0.00 0.01 0.01 92 1018.2
20260505121536 68 269 1.0 2.0 0.00 0.01 0.01 92 1018.5
20260505120035 68 290 0.0 3.0 0.00 0.01 0.01 92 1018.4
20260505114635 68 197 1.0 4.0 0.00 0.01 0.01 92 1018.2
20260505113039 68 279 1.0 2.0 0.00 0.01 0.01 92 1018.6
20260505111533 68 295 1.0 3.0 0.00 0.01 0.01 92 1018.5
20260505101549 69 269 0.0 2.0 0.00 0.01 0.01 89 1018.1
20260505100054 70 269 0.0 2.0 0.00 0.01 0.01 88 1017.9
20260505094532 70 178 0.0 1.0 0.00 0.01 0.01 88 1017.7
20260505093030 70 295 0.0 2.0 0.00 0.01 0.01 88 1018.0
20260505091529 70 331 1.0 2.0 0.00 0.01 0.01 87 1017.8
20260505090028 70 1 1.0 2.0 0.00 0.01 0.01 87 1017.8
20260505084528 71 335 1.0 3.0 0.00 0.01 0.01 87 1017.6
20260505083027 71 295 0.0 2.0 0.00 0.01 0.01 86 1017.1
20260505081526 72 295 1.0 3.0 0.00 0.01 0.01 84 1017.0
20260505080025 72 1 1.0 3.0 0.00 0.01 0.01 83 1016.7
20260505074525 73 347 1.0 3.0 0.00 0.01 0.01 83 1016.7
20260505073034 73 314 1.0 2.0 0.00 0.01 0.01 82 1016.7
20260505071523 73 1 1.0 3.0 0.00 0.01 0.01 81 1016.4
20260505070023 74 46 2.0 3.0 0.00 0.01 0.01 79 1016.3
20260505064522 74 1 0.0 3.0 0.00 0.01 0.01 78 1016.2
20260505063021 75 89 0.0 3.0 0.00 0.01 0.01 77 1016.2
20260505061525 75 306 1.0 4.0 0.00 0.01 0.01 76 1016.3
20260505060023 75 1 1.0 3.0 0.00 0.01 0.01 75 1016.1
20260505054519 76 89 0.0 4.0 0.00 0.01 0.01 75 1015.9
20260505053030 76 28 1.0 5.0 0.00 0.01 0.01 74 1015.7
20260505051534 77 349 1.0 5.0 0.00 0.01 0.01 72 1016.0
20260505041513 78 331 2.0 5.0 0.00 0.01 0.01 69 1015.6
20260505040012 78 46 1.0 5.0 0.00 0.01 0.01 71 1015.4
20260505034509 78 314 2.0 5.0 0.00 0.01 0.01 69 1015.6
20260505033009 78 112 1.0 4.0 0.00 0.01 0.01 69 1015.6
20260505031509 77 148 0.0 6.0 0.00 0.01 0.01 69 1015.5
20260505030006 79 8 1.0 4.0 0.00 0.01 0.01 69 1015.7
20260505024502 77 126 1.0 4.0 0.00 0.01 0.01 72 1015.9
20260505023105 77 162 2.0 6.0 0.00 0.01 0.01 72 1016.4
20260505021557 77 121 3.0 6.0 0.00 0.01 0.01 73 1016.6
20260505020057 76 170 1.0 5.0 0.00 0.01 0.01 76 1016.6
20260505014558 76 120 3.0 7.0 0.00 0.01 0.01 75 1017.0
20260505013056 76 120 2.0 7.0 0.00 0.01 0.01 77 1017.1
20260505011554 75 39 1.0 6.0 0.00 0.01 0.01 76 1017.4
20260505010109 76 196 3.0 7.0 0.00 0.01 0.01 77 1017.8
20260505004548 74 135 3.0 5.0 0.00 0.01 0.01 80 1018.0
20260505003047 75 185 4.0 7.0 0.00 0.01 0.01 80 1018.1
20260505001542 75 178 1.0 8.0 0.00 0.01 0.01 79 1018.3
20260505000044 74 128 3.0 9.0 0.00 0.01 0.01 83 1018.4
20260504234533 72 336 2.0 4.0 0.00 0.01 0.01 85 1018.4
20260504233031 72 135 2.0 7.0 0.00 0.01 0.01 87 1018.6
20260504231526 71 111 4.0 7.0 0.00 0.01 0.01 93 1018.7
20260504230036 69 186 3.0 7.0 0.00 0.01 0.01 96 1018.7
20260504224522 67 152 3.0 8.0 0.00 0.01 0.01 96 1018.7
20260504223016 67 152 2.0 4.0 0.00 0.01 0.01 96 1018.7
20260504221534 66 46 0.0 3.0 0.01 0.01 0.01 96 1018.7
20260504220012 65 89 0.0 2.0 0.01 0.01 0.01 96 1018.6
20260504214511 65 187 1.0 3.0 0.01 0.02 0.01 96 1018.6
20260504213009 64 135 0.0 2.0 0.01 0.02 0.01 96 1018.5
20260504211508 64 135 1.0 3.0 0.00 0.02 0.00 96 1018.4
20260504210006 64 135 0.0 2.0 0.00 0.02 0.00 95 1018.3
20260504204502 64 145 1.0 3.0 0.00 0.02 0.00 95 1018.0
20260504203001 64 178 0.0 3.0 0.00 0.02 0.00 95 1017.9
20260504201559 64 295 1.0 3.0 0.00 0.02 0.00 95 1018.0
20260504194600 64 276 2.0 3.0 0.00 0.02 0.00 95 1017.5